Regional Weather Roundup
Issued by NWS

Home | Current Version | Previous Version | Graphics & Text | Print | Product List | Glossary On
Versions: 1 2 3 4 5 6 7 8 9 10 11 12 13 14 15 16 17 18 19 20 21 22 23 24 25 26 27 28 29 30 31 32 33 34 35 36 37 38 39 40 41 42 43 44 45 46 47 48 49 50
000
ASUS43 KLOT 020110
RWRIL

ILLINOIS REGIONAL WEATHER ROUNDUP
NATIONAL WEATHER SERVICE CHICAGO/ROMEOVILLE IL
700 PM CST SUN MAR 01 2015

NOTE: "FAIR" INDICATES FEW OR NO CLOUDS BELOW 12,000 FEET WITH NO
SIGNIFICANT WEATHER AND/OR OBSTRUCTIONS TO VISIBILITY.

* THESE STATIONS ARE NOT UNDER NWS QUALITY CONTROL. THEY ALSO MAY NOT
  REPORT WEATHER SUCH AS PRECIPITATION OR FOG.

ILZ001-002-007-009-015-016-024-020200-
NORTHWEST ILLINOIS

CITY           SKY/WX    TMP DP  RH WIND       PRES   REMARKS
MOLINE         CLEAR     22  14  71 W9        30.35R WCI  12
STERLING*      CLEAR     21  16  79 W12       30.33R WCI   9
SAVANNA*       CLEAR     24  15  66 W10G17    30.34R WCI  14
$$

ILZ003-004-008-010-011-017-018-020200-
NORTH CENTRAL ILLINOIS

CITY           SKY/WX    TMP DP  RH WIND       PRES   REMARKS
ROCKFORD       PTCLDY    22  14  71 W10       30.30R WCI  11
FREEPORT*      CLEAR     22  15  71 W13       30.30R WCI  10
ROCHELLE*      CLEAR     15  12  87 SW9       30.31R WCI   4
DE KALB*       CLEAR     19  13  80 W12       30.28S WCI   6
PERU*          CLEAR     18  13  81 W8        30.35R WCI   7
$$

ILZ005-006-012>014-019>023-020200-
NORTHEAST ILLINOIS

CITY           SKY/WX    TMP DP  RH WIND       PRES   REMARKS
CHICAGO-OHARE  CLEAR     21  13  71 W9        30.28R WCI  11
CHICAGO-MIDWAY PTCLDY    23  15  71 W12       30.30R WCI  12
AURORA         FAIR      19  12  74 SW9       30.31R WCI   8
LANSING*       PTCLDY    21  15  78 W9        30.31R WCI  10
JOLIET*        CLEAR     19  13  78 W6        30.33R WCI  10
WAUKEGAN       PTCLDY    21  15  78 SW7       30.25R WCI  12
DUPAGE AIRPORT CLEAR     18  12  77 W8        30.29R WCI   8
KANKAKEE*      MOCLDY    16  13  90 W8        30.34R WCI   5
WHEELING       CLEAR     22  14  71 SW7       30.29R WCI  13
MORRIS*        CLEAR     17  13  82 W8        30.32R WCI   7
ROMEOVILLE*    CLEAR     18  13  79 W10       30.32R WCI   6
NORTHERLY ISL    N/A     23  15  71 W8          N/A  WCI  14
$$

LMZ740>746-020200-
SOUTHERN LAKE MICHIGAN

STATION/POSITION SKY/WX   TEMP    WIND        PRES    VSBY  WAVE
                          AIR SEA DIR/SP/G                  HT/PER
                          (F)     (DEG/KT/KT) (MB)    (MI)  (FT/S)
WAUKEGAN HARBOR            23     240/ 12/ 17   N/A
HARRISON CRIB              23     260/ 16/ 19   N/A
BURNHAM HARBOR             23     260/  7/ 15   N/A
CALUMET HARBOR             23     240/  8/ 13 1024.7R
MICHIGAN CITY              23     210/ 13/ 16   N/A
$$

ILZ025>027-034>036-040-047-049-050-058-095>099-020200-
WEST-CENTRAL ILLINOIS

CITY           SKY/WX    TMP DP  RH WIND       PRES   REMARKS
QUINCY         MOCLDY    23  16  74 CALM      30.39R
GALESBURG*     CLEAR     20  16  84 W6        30.37R WCI  12
MACOMB*        PTCLDY    19  15  85 W6        30.41R WCI  11
JACKSONVILLE*  MOCLDY    25  19  77 NW6       30.39R WCI  18
PITTSFIELD*    PTCLDY    27  20  74 NW3       30.40R
$$

ILZ028>032-037-038-041>044-048-051>054-059>061-020200-
CENTRAL ILLINOIS

CITY           SKY/WX    TMP DP  RH WIND       PRES   REMARKS
PONTIAC        PTCLDY    17  12  82 W9        30.35R WCI   6
BLOOMINGTON    CLOUDY    23  19  85 W8        30.35R WCI  14
DECATUR        MOCLDY    24  19  81 NW6       30.36R WCI  17
PEORIA         FAIR      22  14  71 SW3       30.38R
LACON*         CLEAR     21  14  73 W7        30.36R WCI  13
LINCOLN*       MOCLDY    25  19  78 W6        30.40R WCI  18
SPRINGFIELD    CLOUDY    26  20  77 NW6       30.38R WCI  19
TAYLORVILLE    MOCLDY    25  19  80 W5        30.38R WCI  19
$$

ILZ033-039-045-046-055>057-062-063-020200-
EAST-CENTRAL ILLINOIS

CITY           SKY/WX    TMP DP  RH WIND       PRES   REMARKS
CHAMPAIGN      MOCLDY    18  15  88 W5        30.34S WCI  11
DANVILLE*      MOCLDY    19  18  93 W5        30.32R WCI  13
RANTOUL*       CLOUDY    22  19  87 W6        30.34R WCI  15
MATTOON        CLOUDY    24  20  84 NW5       30.34S WCI  18
PARIS*         CLOUDY    24  22  91 W3        30.36S
$$

ILZ079-100>102-020200-
SOUTHWEST ILLINOIS

CITY           SKY/WX    TMP DP  RH WIND       PRES   REMARKS
ALTON          MOCLDY    28  23  80 CALM      30.40
BELLEVILLE     CLOUDY    29  26  89 NW5       30.39R WCI  24
CAHOKIA*       MOCLDY    28  23  81 NW7       30.40R WCI  21
SPARTA*        CLOUDY    30  26  83 NW3       30.40R
$$

ILZ064>066-069>071-074>076-080>082-084>086-088>090-092>094-020200-
SOUTH-CENTRAL ILLINOIS

CITY           SKY/WX    TMP DP  RH WIND       PRES   REMARKS
CARBONDALE     CLOUDY    32  27  81 NW9       30.39R WCI  24
CAIRO*         CLOUDY    38  32  79 NW8       30.38R WCI  32
EFFINGHAM*     MOCLDY    28  21  75 W9        30.38S WCI  19
MARION         CLOUDY    34  30  86 N6        30.39R WCI  29
MT. VERNON     CLOUDY    30  25  80 W3        30.39R
CENTRALIA*     CLOUDY    30  25  82 NW6       30.38R WCI  24
SALEM*         MOCLDY    30  25  82 NW5       30.38R WCI  25
METROPOLIS*    CLOUDY    36  33  88 N5        30.36R WCI  32
$$

ILZ067-068-072-073-078-083-087-091-020200-
SOUTHEAST ILLINOIS

CITY           SKY/WX    TMP DP  RH WIND       PRES   REMARKS
LAWRENCEVILLE  CLOUDY    32  28  85 NW10      30.36R WCI  24
FLORA*         MOCLDY    29  25  86 W7        30.38R WCI  22
FAIRFIELD*     CLOUDY    32  28  86 NW3       30.37R
HARRISBURG*    CLOUDY    32  31  94 NW6       30.39R WCI  27
ROBINSON*      MOCLDY    29  26  88 NW6       30.37R WCI  23
CARMI*         CLOUDY    33  32  95 NW7       30.37R WCI  27
$$

ABBREVIATIONS USED IN REMARKS
   TC - TEMPERATURE IN CELSIUS
  WCI - WIND CHILL INDEX
   HX - HEAT INDEX
  VSB - VISIBILITY
$$



USA.gov is the U.S. government's official web portal to all federal, state and local government web resources and services.